Tracking 30918 objects as of 2-Jul-2025
HD Live streaming from Space Station
objects crossing your sky now

ORBCOMM FM 107

Track ORBCOMM FM 107 now!
10-day predictions
ORBCOMM FM 107 is classified as:


NORAD ID: 40087
Int'l Code: 2014-040B
Perigee: 705.0 km
Apogee: 706.9 km
Inclination: 47.0 °
Period: 98.7 minutes
Semi major axis: 7076 km
RCS: Unknown
Launch date: July 14, 2014
Source: United States (US)
Launch site: AIR FORCE EASTERN TEST RANGE (AFETR)
Your satellite tracking list
Your tracking list is empty




NASA's NSSDC Master Catalog

Two Line Element Set (TLE):
1 40087U 14040B   25181.64276047  .00000345  00000-0  11042-3 0  9994
2 40087  47.0059 313.7047 0001327 305.0827  54.9934 14.58262045583107
Source of the keplerian elements: AFSPC